[[{"header":{"parameterUnit":"m.s-1","parameterCategory":1,"la1":30.2991,"la2":30.254,"lo1":-89.0895,"lo2":-89.0444,"dy":0.0017,"dx":0.0017,"nx":28,"ny":28,"refTime":"2024-04-05T21:00:00:Z","depth":0,"parameterNumber":2,"parameterNumberName":"U-component_of_WINDS"},"data":[0,0,0,0,0,0,0,0,0,0,0,0,0,0,0,0,0,0,0,0,0,0,0,0,0,0,0,0,0,0,0,0,0,0,0,0,0,0,0,0,0,0,0,0,0,0,0,0,0,0,0,0,0,0,0,0,0,0,1.4845,1.4846,0,1.4904,1.4905,1.4905,1.4898,1.4897,1.4896,1.4895,1.4958,1.496,1.4963,0,0,0,0,0,0,0,0,0,0,0,0,0,1.4731,1.4733,1.4845,1.4846,1.4847,1.4904,1.4905,1.4906,1.4898,1.4897,1.4896,1.4894,1.4957,1.496,1.4963,0,0,0,0,0,0,0,0,0,0,0,0,0,1.4785,1.4734,1.4845,1.485,1.4851,1.4904,1.4905,1.4906,1.4898,1.4897,1.4895,1.4894,1.4956,1.496,1.4963,1.5016,0,0,1.4975,1.4977,0,0,0,0,0,0,0,0,1.4782,1.4789,1.4848,1.485,1.4851,1.4892,1.4888,1.4943,1.4899,1.488,1.4895,1.4893,1.4937,1.4942,1.4957,1.5019,1.5022,1.4975,1.4978,1.4979,1.4981,0,0,0,0,0,0,0,1.4778,1.4786,1.4869,1.4849,1.4851,1.4851,1.4856,1.4898,1.4916,1.4882,1.4881,1.4888,1.4938,1.4953,1.4958,1.5023,1.4975,1.4979,1.4981,1.4983,1.5135,1.5137,0,0,0,0,0,0,1.4772,1.4783,1.4867,1.487,1.4812,1.4854,1.486,1.488,1.4916,1.492,1.4889,1.4888,1.4947,1.4954,1.496,1.5026,1.4979,1.4983,1.4985,1.5134,1.5136,1.5138,0,0,0,0,0,0,1.477,1.478,1.4864,1.4827,1.4837,1.4857,1.488,1.4882,1.4898,1.4922,1.4925,1.4902,1.4946,1.4955,1.5003,1.5028,1.4985,1.4988,1.5132,1.5134,1.5137,1.5158,0,0,0,0,0,0,1.4767,1.4779,1.4798,1.4827,1.4839,1.4905,1.4881,1.4884,1.4904,1.4902,1.4934,1.4938,1.4946,1.4997,1.5007,1.5033,1.4991,1.5129,1.5133,1.5136,1.5155,1.5161,1.5166,0,0,0,0,0,1.4763,1.4802,1.4799,1.4809,1.4863,1.4906,1.4913,1.4921,1.4906,1.4926,1.4942,1.4937,1.5024,1.5002,1.5013,1.5041,1.5128,1.5132,1.5136,1.5152,1.516,1.5166,0,0,0,0,0,0,1.4775,1.4805,1.4803,1.4852,1.4877,1.4905,1.493,1.4928,1.4957,1.4955,1.4964,1.4971,1.502,1.5036,1.501,1.5096,1.5074,1.5081,1.5083,1.509,1.5096,1.5091,1.4995,0,0,0,0,0,1.4783,1.4814,1.484,1.4881,1.4893,1.491,1.4928,1.4933,1.4959,1.4969,1.4988,1.5015,1.5049,1.5071,1.5103,1.5158,1.5166,1.5182,1.5188,1.5192,1.5197,1.523,1.5238,1.5151,1.515,1.515,0,0,1.4801,1.4821,1.484,1.4884,1.4903,1.4937,1.4918,1.4954,1.4979,1.4975,1.5021,1.5037,1.5067,1.512,1.5144,1.5134,1.5224,1.5197,1.52,1.5203,1.5235,1.5243,1.5251,1.5153,1.5153,1.5152,0,0,1.485,1.4868,1.4905,1.4925,1.4955,1.4966,1.4976,1.5005,1.5015,1.5062,1.506,1.5092,1.5149,1.5171,1.519,1.5252,1.5249,1.5263,1.5291,1.5323,1.533,1.5336,1.5359,1.5367,1.5268,1.5268,1.5268,0,1.4868,1.4916,1.4924,1.4961,1.4981,1.4979,1.5018,1.5038,1.5077,1.5092,1.508,1.5154,1.5175,1.5233,1.5249,1.5264,1.5276,1.5258,1.5328,1.5334,1.534,1.5363,1.5371,1.5269,1.5269,1.5269,1.5269,0,1.4938,1.4973,1.4999,1.5037,1.5061,1.5098,1.5114,1.5137,1.514,1.5154,1.5203,1.5228,1.5266,1.5281,1.5284,1.5341,1.5334,1.5325,1.5304,1.535,1.5371,1.538,1.5272,1.5271,1.5271,1.527,0,0,1.4994,1.5038,1.5047,1.5066,1.51,1.5128,1.5167,1.5204,1.5225,1.5253,1.5287,1.5338,1.533,1.5352,1.5358,1.5386,1.5436,1.5374,1.5375,1.5385,1.5503,1.5509,1.5519,1.5435,1.5436,1.5438,1.5501,0,1.5047,1.5114,1.5124,1.5184,1.5217,1.5218,1.5252,1.5278,1.5293,1.5325,1.5341,1.5377,1.5364,1.5377,1.5405,1.5424,1.546,1.542,1.5468,1.547,1.546,1.553,1.5536,1.5594,1.5509,1.551,1.5511,0,1.5116,1.5147,1.521,1.5243,1.5257,1.5287,1.5324,1.5354,1.5385,1.5394,1.542,1.5424,1.5467,1.5444,1.5505,1.5478,1.5499,1.5511,1.5514,1.5518,1.5493,1.5537,1.5613,1.5621,1.5524,1.5523,1.5522,0,1.5151,1.5209,1.5255,1.527,1.5309,1.5331,1.5349,1.5378,1.5401,1.5434,1.5449,1.5487,1.5507,1.5537,1.5552,1.5535,1.5613,1.5591,1.5623,1.5622,1.5638,1.5637,1.5719,1.5652,1.5652,1.5651,1.5651,0,1.5209,1.5248,1.5271,1.5299,1.5344,1.5357,1.5401,1.5419,1.5446,1.5479,1.5482,1.5514,1.5532,1.5567,1.5579,1.5628,1.5638,1.5647,1.565,1.5647,1.5646,1.566,1.5657,1.5654,1.5653,1.5653,1.5652,0,1.5255,1.5272,1.5322,1.5356,1.5366,1.5397,1.5427,1.5456,1.5471,1.5514,1.5524,1.5549,1.5591,1.5609,1.566,1.5669,1.5726,1.5725,1.5715,1.5716,1.5746,1.5743,1.584,1.5854,1.5778,1.5778,1.5779,0,1.529,1.5321,1.5358,1.538,1.5399,1.5434,1.5458,1.5473,1.5498,1.5537,1.5562,1.5604,1.5637,1.5705,1.5728,1.5768,1.5769,1.5801,1.5775,1.5772,1.5771,1.5769,1.5773,1.5805,1.5806,1.5806,1.5807,0,1.5352,1.536,1.5393,1.543,1.5459,1.5489,1.5519,1.5537,1.5557,1.5586,1.5628,1.5654,1.5708,1.575,1.5792,1.5812,1.5814,1.5815,1.5825,1.5821,1.5814,1.582,1.5727,1.5812,1.5812,1.5811,1.5811,1.5811,1.5394,1.5422,1.5453,1.5491,1.5516,1.5544,1.5573,1.5593,1.5629,1.5673,1.568,1.5726,1.576,1.5817,1.5839,1.5876,1.5869,1.5882,1.5886,1.5889,1.5891,1.5809,1.5884,1.5884,1.5884,1.5884,1.5884,0,1.5456,1.5477,1.5512,1.5554,1.5585,1.5584,1.5618,1.5644,1.5684,1.5715,1.5749,1.5799,1.5841,1.5869,1.5912,1.5937,1.5939,1.5948,1.5946,1.5951,1.5895,1.5883,1.5946,1.5946,1.5946,1.5946,1.5946,1.5946,1.5492,1.554,1.5552,1.5613,1.5634,1.5678,1.5698,1.5725,1.575,1.5806,1.5841,1.5859,1.589,1.5936,1.5975,1.5982,1.5998,1.6008,1.6015,1.5961,1.5955,1.5949,1.5937,1.6011,1.6011,1.6068,1.6069,1.6069]},{"header":{"parameterUnit":"m.s-1","parameterCategory":1,"la1":30.2991,"la2":30.254,"lo1":-89.0895,"lo2":-89.0444,"dy":0.0017,"dx":0.0017,"nx":28,"ny":28,"refTime":"2024-04-05T21:00:00:Z","depth":0,"parameterNumber":3,"parameterNumberName":"V-component_of_WINDS"},"data":[0,0,0,0,0,0,0,0,0,0,0,0,0,0,0,0,0,0,0,0,0,0,0,0,0,0,0,0,0,0,0,0,0,0,0,0,0,0,0,0,0,0,0,0,0,0,0,0,0,0,0,0,0,0,0,0,0,0,-0.4487,-0.4486,0,-0.4357,-0.4355,-0.4354,-0.4388,-0.4391,-0.4393,-0.4396,-0.4254,-0.4248,-0.4241,0,0,0,0,0,0,0,0,0,0,0,0,0,-0.4759,-0.4753,-0.4487,-0.4486,-0.4484,-0.4357,-0.4355,-0.4353,-0.4388,-0.4391,-0.4394,-0.4397,-0.4256,-0.4248,-0.4241,0,0,0,0,0,0,0,0,0,0,0,0,0,-0.4635,-0.4752,-0.4487,-0.4486,-0.4484,-0.4357,-0.4355,-0.4353,-0.4387,-0.4391,-0.4395,-0.4398,-0.4258,-0.4249,-0.424,-0.4104,0,0,-0.4211,-0.4207,0,0,0,0,0,0,0,0,-0.4642,-0.4625,-0.4488,-0.4486,-0.4484,-0.4393,-0.4399,-0.4269,-0.4386,-0.4424,-0.4396,-0.44,-0.4296,-0.4284,-0.4251,-0.4097,-0.4091,-0.4211,-0.4205,-0.4201,-0.4198,0,0,0,0,0,0,0,-0.4651,-0.4631,-0.4435,-0.4486,-0.4483,-0.4489,-0.4476,-0.4374,-0.4339,-0.4421,-0.4423,-0.4407,-0.4296,-0.426,-0.4248,-0.4089,-0.4211,-0.4203,-0.4197,-0.4193,-0.3818,-0.3814,0,0,0,0,0,0,-0.4662,-0.4638,-0.444,-0.4431,-0.4575,-0.4481,-0.4467,-0.4418,-0.4341,-0.4333,-0.4404,-0.441,-0.4274,-0.4258,-0.4243,-0.4079,-0.4201,-0.4192,-0.4187,-0.3822,-0.3817,-0.3812,0,0,0,0,0,0,-0.4668,-0.4644,-0.4445,-0.4535,-0.4511,-0.4473,-0.4418,-0.4413,-0.4377,-0.4328,-0.4321,-0.4374,-0.4276,-0.4256,-0.4139,-0.4074,-0.4188,-0.418,-0.3828,-0.3821,-0.3815,-0.3749,0,0,0,0,0,0,-0.4675,-0.4646,-0.4595,-0.4534,-0.4506,-0.4345,-0.4414,-0.4408,-0.4362,-0.4368,-0.4298,-0.429,-0.4278,-0.4153,-0.413,-0.4063,-0.4172,-0.3833,-0.3825,-0.3817,-0.3757,-0.3741,-0.3728,0,0,0,0,0,-0.4685,-0.458,-0.4592,-0.4568,-0.4442,-0.4341,-0.4324,-0.4315,-0.4357,-0.4304,-0.4273,-0.4292,-0.4086,-0.414,-0.4115,-0.4045,-0.3837,-0.3827,-0.3817,-0.3763,-0.3744,-0.3728,0,0,0,0,0,0,-0.463,-0.4572,-0.4585,-0.4457,-0.4405,-0.4347,-0.4281,-0.4294,-0.4226,-0.4234,-0.4222,-0.4206,-0.4086,-0.4054,-0.4116,-0.3909,-0.3967,-0.3952,-0.3935,-0.3916,-0.3902,-0.3911,-0.4165,0,0,0,0,0,-0.4604,-0.453,-0.4482,-0.4373,-0.4347,-0.4318,-0.4274,-0.4272,-0.4215,-0.4191,-0.4152,-0.4094,-0.4016,-0.3964,-0.389,-0.3753,-0.3738,-0.3692,-0.3678,-0.3666,-0.3652,-0.3577,-0.3556,-0.378,-0.378,-0.378,0,0,-0.4548,-0.4507,-0.446,-0.4362,-0.432,-0.4241,-0.4299,-0.4212,-0.4153,-0.4177,-0.4065,-0.4034,-0.3969,-0.3842,-0.3783,-0.3811,-0.3588,-0.3654,-0.3645,-0.3637,-0.3565,-0.3544,-0.3525,-0.3773,-0.3775,-0.3776,0,0,-0.4405,-0.4367,-0.4273,-0.4232,-0.417,-0.4152,-0.413,-0.4071,-0.4052,-0.394,-0.3957,-0.3885,-0.3751,-0.3704,-0.3663,-0.3505,-0.352,-0.3481,-0.3404,-0.3331,-0.3313,-0.3298,-0.3241,-0.322,-0.3468,-0.3467,-0.3467,0,-0.4342,-0.4226,-0.4222,-0.4135,-0.4091,-0.4114,-0.4017,-0.3976,-0.3891,-0.386,-0.3893,-0.3726,-0.3684,-0.3546,-0.3508,-0.3474,-0.3447,-0.3488,-0.3317,-0.3301,-0.3286,-0.3232,-0.321,-0.3463,-0.3464,-0.3464,-0.3464,0,-0.4151,-0.4071,-0.4002,-0.3924,-0.3872,-0.378,-0.3761,-0.3709,-0.3712,-0.369,-0.3576,-0.3526,-0.3443,-0.341,-0.341,-0.3272,-0.3291,-0.3321,-0.3378,-0.3261,-0.3209,-0.3188,-0.3457,-0.3458,-0.346,-0.3461,0,0,-0.3967,-0.3891,-0.3865,-0.3831,-0.3765,-0.3701,-0.3611,-0.3532,-0.3487,-0.3429,-0.3352,-0.3239,-0.3267,-0.322,-0.3215,-0.3152,-0.303,-0.3189,-0.3187,-0.316,-0.2874,-0.2851,-0.2827,-0.3041,-0.3037,-0.3033,-0.2879,0,-0.3818,-0.3662,-0.3657,-0.3513,-0.3438,-0.3459,-0.338,-0.333,-0.3308,-0.324,-0.3215,-0.3135,-0.3178,-0.315,-0.3088,-0.3058,-0.2972,-0.3069,-0.2966,-0.2963,-0.298,-0.28,-0.2775,-0.2632,-0.2859,-0.2856,-0.2853,0,-0.3622,-0.3561,-0.341,-0.3357,-0.3326,-0.3255,-0.3183,-0.3118,-0.3062,-0.3051,-0.3,-0.3005,-0.2911,-0.2974,-0.2843,-0.291,-0.2868,-0.2847,-0.2841,-0.2829,-0.2899,-0.2782,-0.2587,-0.2564,-0.2822,-0.2824,-0.2826,0,-0.3502,-0.3382,-0.3277,-0.3246,-0.3181,-0.3131,-0.3102,-0.305,-0.3004,-0.294,-0.291,-0.2835,-0.2794,-0.2735,-0.272,-0.2767,-0.2589,-0.2651,-0.2575,-0.2576,-0.2535,-0.2537,-0.2328,-0.251,-0.2511,-0.2511,-0.2512,0,-0.3334,-0.3241,-0.3222,-0.3157,-0.3053,-0.3048,-0.2944,-0.2918,-0.2872,-0.2801,-0.2815,-0.2747,-0.2732,-0.2661,-0.2649,-0.2542,-0.2523,-0.251,-0.2507,-0.2508,-0.2509,-0.2478,-0.2487,-0.2505,-0.2507,-0.2508,-0.2509,0,-0.3181,-0.3165,-0.3051,-0.3001,-0.2986,-0.2912,-0.2868,-0.2804,-0.2786,-0.2696,-0.2674,-0.2643,-0.2561,-0.2541,-0.2441,-0.2433,-0.2307,-0.2314,-0.2326,-0.2326,-0.2252,-0.2258,-0.2014,-0.1981,-0.2186,-0.2184,-0.2183,0,-0.3074,-0.3003,-0.2947,-0.2902,-0.2871,-0.2797,-0.2751,-0.2744,-0.2695,-0.2627,-0.2571,-0.2492,-0.2427,-0.2294,-0.2261,-0.2185,-0.219,-0.211,-0.2179,-0.2182,-0.2188,-0.2191,-0.2184,-0.2096,-0.2094,-0.2092,-0.209,0,-0.2886,-0.2882,-0.2817,-0.2748,-0.2693,-0.2638,-0.2586,-0.2547,-0.2533,-0.2477,-0.2394,-0.2345,-0.2245,-0.2165,-0.209,-0.2057,-0.207,-0.207,-0.2048,-0.2047,-0.2056,-0.2049,-0.2289,-0.2075,-0.2076,-0.2077,-0.2078,-0.2079,-0.2751,-0.269,-0.2641,-0.2568,-0.2528,-0.248,-0.2418,-0.2394,-0.2326,-0.2246,-0.2246,-0.2155,-0.2102,-0.2003,-0.1966,-0.1894,-0.1919,-0.1887,-0.1879,-0.1871,-0.1864,-0.207,-0.1881,-0.1881,-0.1882,-0.1882,-0.1882,0,-0.2563,-0.2534,-0.2466,-0.2394,-0.2336,-0.2359,-0.2302,-0.2251,-0.2173,-0.2123,-0.2061,-0.1966,-0.1889,-0.1852,-0.1776,-0.1725,-0.1729,-0.1705,-0.1708,-0.17,-0.1847,-0.1873,-0.1703,-0.1703,-0.1703,-0.1703,-0.1703,-0.1703,-0.2458,-0.2355,-0.2346,-0.2224,-0.2195,-0.2109,-0.2075,-0.2029,-0.199,-0.1885,-0.1823,-0.18,-0.1755,-0.1676,-0.1606,-0.1597,-0.1568,-0.154,-0.1534,-0.1671,-0.1689,-0.1707,-0.1731,-0.1534,-0.1534,-0.1392,-0.1391,-0.139]}]]